Flag Weather past 2 weeks in Muyinga, Burundi

Now
70 °F

Broken clouds.


Feels Like: 70 °F
Forecast: 60 / 75 °F
Wind: 8 mph from Northwest

Location: Kigali Airport

Current Time: Nov 26, 2014 at 12:42:32 PM

Latest Report: Nov 26, 2014 at 12:30 PM


Visibility: N/A

Pressure: 30.09 "Hg

Humidity: 94%

Dew point: 68 °F

Location of MuyingaLocation

Historic Weather in Muyinga — Graph

°F

Muyinga temperature yesterday

Maximum temperature yesterday: 81 °F (at 12:00 PM)
Minimum temperature yesterday: 63 °F (at 3:30 AM)
Average temperature yesterday: 69 °F

Past Weeks' High & Low Weather Summary

 TemperatureHumidityPressure
High82 °F (Nov 17, 1:30 PM)100% (Nov 11, 1:00 PM)30.24 "Hg (Nov 11, 1:00 PM)
Low59 °F (Nov 16, 3:00 AM)51% (Nov 17, 1:30 PM)29.98 "Hg (Nov 17, 3:00 PM)
Average68 °F89%30.10 "Hg
* Reported Nov 11 11:00 AM — Nov 26 11:30 AM, Muyinga, Weather by CustomWeather, © 2014

Note: Actual official high and low records may vary slightly from our data, if they occured in-between our weather recording intervals... More about our weather records

Advertising

Muyinga weather history for previous 24 hours

 ConditionsComfort  
Time TempWeatherWind HumidityBarometerVisibility
11:30 AM
Nov 26
66 °FLight rain. Partly sunny.6 mph100%30.12 "Hg4 mi
11:00 AM66 °FLight rain. Partly sunny.6 mph100%30.15 "Hg4 mi
10:30 AM68 °FLight rain. Partly sunny.7 mph100%30.15 "Hg4 mi
10:00 AM68 °FPartly sunny.8 mph94%30.15 "HgN/A
9:30 AM70 °FBroken clouds.9 mph88%30.15 "HgN/A
9:00 AM70 °FBroken clouds.5 mph94%30.12 "Hg5 mi
8:30 AM72 °FPassing clouds.No wind83%30.12 "Hg4 mi
8:00 AM68 °FPassing clouds.No wind100%30.12 "Hg4 mi
7:30 AM64 °FScattered clouds.No wind100%30.12 "Hg4 mi
7:00 AM64 °FScattered clouds.No wind100%30.09 "Hg4 mi
6:30 AM63 °FPassing clouds.No wind100%30.09 "Hg4 mi
6:00 AM63 °FPassing clouds.No wind100%30.07 "Hg4 mi
5:30 AM63 °FFog.No wind100%30.07 "Hg0 mi
5:00 AM64 °FPassing clouds.No wind100%30.07 "Hg5 mi
4:30 AM64 °FPassing clouds.No wind100%30.04 "HgN/A
4:00 AM64 °FPassing clouds.No wind100%30.04 "HgN/A
3:30 AM64 °FPassing clouds.No wind100%30.04 "HgN/A
3:00 AM64 °FPassing clouds.No wind100%30.04 "HgN/A
2:30 AM64 °FPassing clouds.No wind100%30.04 "HgN/A
2:00 AM64 °FPassing clouds.3 mph100%30.04 "HgN/A
1:30 AM64 °FPassing clouds.No wind100%30.04 "HgN/A
1:00 AM64 °FPassing clouds.No wind100%30.07 "HgN/A
12:30 AM66 °FPassing clouds.3 mph100%30.07 "HgN/A
12:00 AM66 °FPassing clouds.3 mph100%30.09 "HgN/A
11:30 PM
Nov 25
64 °FPassing clouds.No wind100%30.09 "HgN/A
11:00 PM66 °FPassing clouds.No wind100%30.09 "HgN/A
10:30 PM66 °FPassing clouds.No wind100%30.09 "HgN/A
10:00 PM66 °FPassing clouds.5 mph100%30.09 "HgN/A
9:30 PM66 °FPassing clouds.5 mph100%30.09 "HgN/A
9:00 PM68 °FPassing clouds.No wind94%30.12 "HgN/A
8:30 PM68 °FPassing clouds.No wind94%30.07 "HgN/A
8:00 PM68 °FPassing clouds.No wind94%30.07 "HgN/A
7:30 PM68 °FPassing clouds.No wind94%30.07 "HgN/A
7:00 PM70 °FPassing clouds.No wind83%30.07 "HgN/A
6:30 PM70 °FPartly cloudy.No wind83%30.04 "HgN/A
6:00 PM70 °FPartly cloudy.No wind83%30.04 "HgN/A
5:00 PM70 °FScattered clouds.No wind83%30.04 "HgN/A
4:30 PM70 °FPartly sunny.6 mph83%30.04 "HgN/A
4:00 PM72 °FPartly sunny.3 mph78%30.04 "HgN/A
2:30 PM81 °FPartly sunny.6 mph66%30.01 "HgN/A
1:30 PM81 °FLight rain. Partly sunny.6 mph62%30.04 "HgN/A
1:00 PM77 °FLight rain. Partly sunny.6 mph83%30.07 "HgN/A
12:30 PM79 °FLight rain. Partly sunny.7 mph65%30.07 "HgN/A
12:00 PM81 °FPartly sunny.5 mph62%30.09 "HgN/A
Weather by CustomWeather, © 2014

See weather overviewHow to use our weather pages